Find Weili Kongjian 02-06

NORAD ID: 68355 Int'l Des: 2026-060 Owner: CENTI Country: CN Constellation: future-navigation operational
LEOCIRCULAR

实时位置

正在加载3D地球...

关于 Weili Kongjian 02-06

正在加载描述...

即将过境

Passes for default location (London). Set your location on the main map for personalized predictions.

高度历史

Loading altitude history...

两行轨道根数

1 68355U 26060F 26127.74266812 -.00000087 00000-0 18230-4 0 9999
2 68355 54.9741 200.8784 0011893 48.8423 311.3599 14.73586581 6802
Epoch: May 7, 2026 • Age: 4 hours

当前状态

高度 675.1 km
速度 7.51 km/s
星下点 -50.50°S, 121.05°W
发射日期 Mar 22, 2026
运行时间 0.1 years
类型 other

技术详情

分类 Payload
质量 140.00 kg
干质量 140.00 kg
总质量 140.00 kg
长度 1.00 m
直径 0.50 m
跨度 2.00 m
形状 Box + 2 pan
制造商 DFHS
平台类型 WK01
阶段状态 In Orbit
所有者/国家 CENTI/CN

Most Searched